Other Surface Observations
Issued by NWS Charleston, SC

Home | Current Version | Previous Version | Text Only | Print | Product List | Glossary On
Versions: 1 2 3 4 5 6 7 8 9 10 11 12 13 14 15 16 17 18 19 20 21 22 23 24 25 26 27 28 29 30 31 32 33 34 35 36 37 38 39 40 41 42 43 44 45 46 47 48 49 50
000
SXUS52 KCHS 052027
OSOCHS

MARINE OBSERVATIONS
NATIONAL WEATHER SERVICE CHARLESTON SC
400 PM EDT TUE MAY 05 2015

...DOWNTOWN CHARLESTON AND HARBOR...

CITY           SKY/WX    TMP DP  RH WIND       PRES   REMARKS
WATERFRONT PRK   N/A     75 N/A N/A E17         N/A
FORT JOHNSON   NOT AVBL

...LAKE MOULTRIE...

CITY           SKY/WX    TMP DP  RH WIND       PRES   REMARKS
PINOPOLIS      NOT AVBL

...LAKE AND SUPPLEMENTAL COASTAL OBSERVATIONS...

STATION/POSITION TIME  TEMP    WIND        PRES    WAVE   SWELL
                       AIR SEA DIR/SP/G            HT/PER HT/PER/DIR
                 (UTC) (F)     (DEG/KT/KT) (MB)    (FT/S) (FT/S/D)
FORT PULASKI     1906   72 71   50/ 17/ 20 1025.7F
SAPELO ISLAND    2000   77      50/ 13     1024.0F
UPR LAKE MARION  NOT AVBL
WINYAH BAY       1900   72      60/ 10     1026.0S
LAKE MURRAY      2000   80     170/  1/  4 1023.7F
ACE BASIN NERRS  1900   79     100/  4     1026.0S


...C-MAN AND BUOY OBSERVATIONS...

STATION/POSITION TIME  TEMP    WIND        PRES    WAVE   SWELL
                       AIR SEA DIR/SP/G            HT/PER HT/PER/DIR
                 (UTC) (F)     (DEG/KT/KT) (MB)    (FT/S) (FT/S/D)
BUOY 41004       1950   72 73   50/ 14/ 17 1024.7F   3/ 6   2/ 9
BUOY 41008       1950   71 71   40/ 16/ 19 1024.1F   4/ 7   2/ 60/10
FOLLY BEACH CMAN 2000   72      60/ 14/ 15 1025.2F
CAPERS NS BUOY   1908   71      70/ 12/ 16 1026.0F
FRIPP NS BUOY    1900   72      70/ 14/ 17 1024.9F
5E ST. MARYS GA  1921      73                N/A     4/ 7


STATION/POSITION TIME  TEMP    WIND        PRES    WAVE   SWELL
                       AIR SEA DIR/SP/G            HT/PER HT/PER/DIR
                 (UTC) (F)     (DEG/KT/KT) (MB)    (FT/S) (FT/S/D)
FRYING PAN BUOY  1950   73 72   90/ 10/ 10 1026.9F   3/ 5   3/130/ 5
BUOY 41025       1950   73 77  150/ 12/ 16 1026.9F   3/ 8   2/ 70/ 8
CAPE LOOKOUT NC  2000   71     130/  7/  7 1026.1F
BUOY 41002       1950   70 70  100/ 17/ 19 1025.7F   6/ 7   2/ 60/ 9
BUOY 41010       1920   74 78   80/ 17/ 19 1020.6F
ST AUGUSTINE FL  2000   73 74   40/  7/  8 1022.8F

$$



USA.gov is the U.S. government's official web portal to all federal, state and local government web resources and services.